Vertical_Velocity
-1 -0 -1 -1 -1 0 0 1 0 -0 -1 3 1 -1 -1 -1 -1 -2 -1 -1 -1 1 0 1 -0 -1 -1 -2 -3 -3 -6 -0 -2 1 -0 -0 1 0 1 1 -2 -4 -2 -0 -1
-1 -0 -1 -1 -0 1 -1 0 0 -0 0 1 -0 -1 -1 -1 -0 -1 0 0 -1 0 -1 -1 -0 -2 -2 -4 -1 34 -9 -2 -3 -2 -1 -1 -2 1 2 1 2 0 -2 -2 -2
-1 -1 -1 -0 -0 1 -1 -0 -1 0 0 -1 0 -1 1 -0 -0 1 -0 1 0 1 0 -1 -0 -1 -2 -2 0 8 3 -1 -4 -3 -2 -2 -3 -1 -0 -1 -1 -0 -1 -2 -0
-1 -1 -1 -0 1 1 -0 -2 1 1 0 0 0 0 -0 -1 0 -2 2 0 -2 1 1 -2 -0 -1 -2 10 -4 18 0 -3 -3 -2 0 -1 -2 -2 -1 -0 -0 -1 -1 -1 -0
-0 -1 -2 1 1 1 -2 -1 2 1 0 0 -1 0 -1 1 0 -0 -1 -2 -2 -0 2 -2 -1 -1 -3 -1 -3 -5 -2 -1 -2 -2 -2 -3 -3 -1 -1 0 -0 -1 -1 -1 -1
-1 -0 -1 1 1 0 -1 0 0 1 0 -0 -1 -0 -1 0 -1 0 0 -1 -2 -1 -1 -1 -3 -2 -2 -2 -2 -2 -2 -3 -3 -3 -4 2 2 -2 -3 -2 -1 -0 -1 -2 -1
-1 -0 -0 1 1 0 -2 -0 -1 1 1 -1 -1 -1 0 -0 -1 1 -0 2 -1 0 1 -2 -2 -3 -3 -2 -2 -2 -4 -1 -4 -5 12 -13 -4 7 -3 -2 -0 -1 -0 -2 -2
-0 -1 0 1 1 0 -1 -2 -1 1 0 -2 -1 -1 0 -1 -1 -1 -2 -0 -2 -1 -1 -4 -4 -3 -2 -2 -1 -3 1 49 -6 -2 6 -4 71 9 -2 -2 0 -1 -1 -1 -0
0 -1 -0 2 1 -0 -0 -2 0 2 -0 -1 -1 -1 -0 -0 -1 -1 -0 1 -1 -2 -4 -4 -0 -0 -4 -7 -0 12 -10 -3 -5 -3 -2 1 -2 -6 -1 -2 -0 1 -1 -2 0
1 -1 0 1 -0 0 -2 -0 2 2 -1 -0 -0 -0 0 -0 0 -0 -6 -3 1 -2 -2 9 6 4 5 -6 -7 19 -0 0 -6 -2 -4 -5 0 -1 -1 -2 -2 -0 0 0 -1
0 -1 -0 -0 0 -1 -1 0 1 -0 -1 1 -2 5 2 1 2 0 -2 -1 -1 -4 -2 16 42 20 13 -6 0 -6 -3 -1 -4 1 -7 1 -2 -2 -2 -2 -1 1 -2 -3 -3
0 -1 0 1 0 -2 -1 2 8 2 -1 -1 0 1 -1 -1 1 -2 -2 -1 -5 -0 5 23 17 13 3 -8 -8 -8 3 -3 -1 1 -7 0 0 -1 -1 -1 -2 -2 -1 0 -0
1 -1 1 1 0 -1 1 3 1 -0 -0 -1 0 -0 -0 -1 -1 -9 -1 -3 -3 4 6 -40 -11 6 -6 -7 12 22 0 -4 4 1 0 -2 -5 -1 -0 -2 -1 -1 -1 -1 -1
1 -0 1 -0 -1 -1 0 2 0 -0 1 -0 1 0 0 1 -1 -1 -2 -2 -4 11 2 41 5 4 -6 -4 5 18 -2 -5 1 -3 -2 1 -5 1 -6 -6 2 -1 -3 -3 -2
1 0 0 3 3 -0 4 2 1 1 7 4 0 -1 0 -2 1 -1 -3 -3 -4 4 -7 -10 2 1 -9 -8 -0 1 -4 -8 -6 -5 34 7 30 42 15 0 -9 -2 -5 -6 -6
1 0 1 0 2 1 2 1 1 1 15 -0 1 1 1 1 -1 -0 -1 -2 -3 3 2 -8 2 -1 -3 -4 -2 -4 -5 2 -1 25 -17 11 13 -7 -23 -3 17 2 -10 -6 -3
1 1 -0 -3 2 1 -0 1 2 -6 2 5 2 1 2 0 -2 -1 -3 -4 -3 10 6 6 -1 -9 -3 -4 -3 -2 13 -17 -4 -14 15 1 6 2 -0 8 11 11 6 -2 -7
0 1 3 -1 1 -1 1 -1 -1 1 2 1 1 2 1 1 1 -1 -0 -8 1 5 -4 43 6 -7 -4 -3 -2 10 6 30 27 -25 44 -19 22 -1 -13 1 -6 -4 -2 -2 4
2 1 -0 0 1 1 -0 2 7 -1 -5 3 3 3 3 2 -1 -2 -8 27 7 -2 3 16 10 -3 -4 -5 -3 -4 -8 10 -17 11 -13 27 6 4 -5 -5 -5 -2 -3 -1 4
2 -1 -1 1 1 -0 -0 -5 13 -7 2 2 1 1 0 -4 1 -5 2 -4 -3 -7 5 -2 8 1 -5 -6 -4 -5 -7 -7 19 -0 -16 36 8 12 7 4 -5 -1 -3 -1 2
1 -1 -0 0 0 -1 2 7 -2 0 1 -0 -2 3 9 1 -1 10 -0 -3 -5 -4 -2 15 -7 -5 -7 -5 -3 0 17 11 0 -20 -5 -11 50 0 2 -2 -5 -3 -2 -5 -4
0 2 1 1 0 1 1 -2 2 2 1 -0 5 -8 7 13 -6 2 17 -8 3 -0 -0 -7 5 29 31 -14 -4 -4 -3 -5 12 -3 17 -16 -18 -1 -10 -1 -2 2 0 -2 -1
-1 6 -0 -1 -1 0 1 -2 -1 1 -2 -0 1 3 -5 8 -2 -6 4 -8 -2 -4 -3 1 -9 8 14 5 -10 0 1 -2 -3 0 2 -5 10 6 1 -2 -2 -0 -2 -3 -2
3 -0 -2 0 -3 -7 3 1 2 1 3 -0 -4 -3 0 -1 -2 -1 -1 -2 -4 -5 -3 -4 -5 3 4 13 7 -5 -1 3 2 3 -1 3 -3 -3 2 -0 2 1 -2 -2 0
1 4 3 5 -1 2 -2 -1 3 3 2 2 1 2 2 0 -1 1 8 -3 0 -2 0 1 -1 -3 -1 -2 -2 -0 2 0 0 -1 -2 1 -1 6 -10 4 1 2 -0 0 -3
-4 -4 7 -2 1 0 0 1 3 2 4 4 2 3 4 7 -9 12 5 -0 9 -4 -0 -0 -0 -1 -0 -1 4 -3 2 -2 0 0 0 4 18 -25 1 1 -1 -2 -4 -1 5
-4 8 6 -0 -0 4 2 -2 5 -3 2 -6 -6 3 3 -4 -8 -6 4 -3 6 -2 -3 -1 1 -2 -3 -2 -3 -6 3 -0 -0 0 2 5 -14 6 -2 4 9 -5 -5 -1 1
Height
5892 5892 5892 5893 5894 5896 5898 5900 5902 5905 5908 5911 5914 5916 5917 5918 5919 5920 5922 5923 5923 5923 5923 5923 5924 5924 5923 5923 5924 5925 5926 5929 5929 5928 5926 5925 5926 5926 5926 5926 5926 5926 5926 5925 5924
5891 5891 5892 5892 5895 5897 5899 5900 5903 5907 5909 5912 5915 5917 5918 5919 5920 5921 5924 5924 5925 5924 5924 5924 5925 5925 5924 5925 5927 5920 5926 5928 5927 5927 5927 5927 5927 5928 5928 5928 5927 5927 5926 5926 5926
5890 5890 5891 5892 5895 5897 5899 5901 5905 5908 5911 5913 5916 5917 5919 5920 5922 5922 5924 5925 5926 5926 5927 5926 5927 5926 5925 5927 5927 5924 5926 5929 5928 5928 5928 5928 5928 5928 5928 5929 5928 5928 5927 5926 5926
5890 5890 5891 5892 5895 5897 5899 5903 5906 5909 5912 5914 5917 5918 5920 5921 5925 5924 5925 5925 5927 5927 5929 5928 5928 5927 5928 5932 5931 5931 5931 5930 5930 5929 5930 5929 5929 5929 5929 5929 5929 5928 5927 5927 5927
5889 5889 5891 5893 5895 5898 5900 5904 5908 5911 5913 5915 5917 5919 5921 5923 5924 5925 5925 5925 5926 5928 5929 5929 5929 5929 5929 5931 5932 5931 5932 5931 5931 5931 5930 5930 5930 5930 5930 5930 5930 5930 5929 5928 5927
5889 5889 5890 5893 5895 5898 5901 5905 5909 5912 5913 5916 5918 5920 5922 5924 5925 5926 5926 5925 5924 5926 5929 5930 5931 5931 5931 5931 5933 5934 5934 5934 5933 5932 5931 5931 5930 5930 5930 5930 5930 5930 5929 5929 5929
5888 5888 5890 5893 5895 5899 5903 5906 5910 5912 5914 5916 5919 5921 5923 5926 5926 5927 5928 5927 5926 5927 5929 5932 5932 5932 5932 5932 5934 5935 5936 5937 5935 5933 5932 5931 5931 5932 5933 5932 5931 5930 5929 5929 5929
5887 5887 5890 5893 5896 5900 5904 5908 5910 5913 5915 5918 5920 5922 5924 5926 5928 5928 5929 5929 5929 5929 5932 5933 5933 5932 5932 5934 5937 5937 5936 5924 5937 5935 5932 5928 5907 5930 5933 5932 5932 5931 5930 5930 5929
5886 5887 5889 5892 5896 5901 5905 5909 5911 5914 5916 5919 5921 5923 5926 5927 5928 5930 5931 5931 5931 5932 5933 5935 5935 5935 5936 5936 5940 5939 5939 5939 5939 5937 5936 5934 5933 5934 5933 5933 5933 5932 5931 5931 5931
5885 5886 5888 5892 5896 5901 5906 5910 5912 5916 5918 5920 5922 5925 5926 5929 5930 5931 5932 5933 5934 5934 5934 5935 5934 5934 5937 5938 5942 5942 5942 5944 5941 5939 5937 5936 5938 5935 5935 5933 5933 5932 5932 5932 5931
5883 5885 5888 5892 5897 5902 5907 5910 5914 5918 5918 5921 5922 5925 5927 5929 5931 5932 5932 5934 5934 5934 5934 5934 5906 5934 5942 5940 5943 5945 5948 5947 5943 5941 5939 5940 5937 5936 5935 5934 5934 5933 5933 5932 5932
5882 5884 5887 5892 5897 5903 5907 5911 5916 5919 5919 5920 5922 5925 5927 5929 5931 5932 5934 5934 5934 5935 5934 5936 5939 5940 5940 5940 5943 5946 5949 5948 5943 5944 5944 5944 5941 5939 5938 5937 5936 5936 5935 5935 5934
5880 5883 5886 5891 5898 5904 5908 5912 5916 5918 5920 5922 5923 5925 5927 5929 5931 5933 5934 5934 5936 5936 5936 5928 5941 5941 5940 5943 5944 5947 5950 5947 5948 5945 5943 5944 5942 5941 5941 5939 5938 5937 5936 5936 5936
5879 5883 5886 5891 5899 5903 5908 5912 5916 5919 5921 5924 5925 5926 5928 5930 5933 5934 5935 5936 5936 5938 5938 5940 5944 5942 5941 5945 5945 5941 5944 5946 5947 5945 5946 5946 5945 5943 5940 5939 5938 5937 5937 5936 5935
5878 5882 5887 5893 5899 5904 5910 5913 5917 5920 5924 5926 5926 5927 5928 5931 5933 5934 5934 5935 5936 5937 5939 5942 5944 5942 5944 5945 5947 5946 5947 5948 5950 5951 5955 5952 5948 5944 5946 5943 5939 5938 5936 5936 5936
5877 5882 5887 5892 5898 5903 5908 5913 5917 5922 5925 5924 5927 5928 5930 5932 5932 5933 5934 5935 5936 5939 5939 5942 5942 5943 5947 5945 5946 5948 5948 5950 5952 5949 5943 5951 5949 5943 5939 5942 5945 5943 5939 5937 5936
5876 5881 5885 5890 5897 5903 5907 5912 5918 5922 5925 5927 5927 5929 5931 5932 5934 5934 5935 5935 5937 5940 5940 5942 5943 5944 5944 5946 5949 5949 5950 5948 5951 5950 5951 5950 5950 5944 5940 5940 5948 5945 5945 5939 5936
5875 5879 5884 5889 5895 5901 5907 5912 5916 5922 5924 5925 5927 5930 5932 5937 5937 5935 5938 5939 5939 5943 5941 5946 5945 5943 5944 5945 5945 5953 5953 5954 5957 5953 5955 5950 5952 5943 5943 5944 5941 5941 5941 5941 5939
5874 5878 5883 5888 5894 5900 5906 5911 5919 5922 5920 5924 5928 5931 5933 5937 5935 5936 5940 5942 5944 5940 5942 5949 5947 5945 5945 5946 5948 5949 5950 5952 5953 5956 5955 5954 5949 5949 5943 5941 5938 5938 5936 5935 5936
5873 5877 5881 5886 5892 5898 5905 5909 5914 5913 5919 5924 5928 5930 5934 5935 5935 5939 5943 5940 5944 5942 5941 5938 5944 5947 5945 5946 5947 5947 5948 5951 5954 5952 5953 5951 5949 5943 5942 5939 5935 5935 5935 5933 5932
5872 5876 5880 5885 5890 5896 5903 5909 5909 5913 5918 5922 5926 5931 5937 5936 5936 5943 5940 5941 5940 5940 5941 5948 5948 5948 5947 5947 5947 5949 5951 5951 5951 5950 5951 5951 5948 5943 5938 5935 5933 5930 5929 5927 5924
5871 5876 5880 5884 5890 5895 5900 5903 5908 5913 5917 5921 5925 5928 5934 5935 5937 5937 5942 5939 5938 5938 5941 5943 5947 5946 5953 5945 5944 5942 5943 5944 5948 5948 5948 5945 5946 5940 5935 5932 5929 5926 5923 5920 5918
5870 5876 5879 5883 5889 5894 5899 5903 5908 5912 5915 5919 5922 5925 5929 5933 5935 5936 5938 5934 5936 5936 5940 5943 5945 5950 5951 5947 5939 5942 5941 5939 5939 5942 5942 5942 5945 5938 5933 5928 5923 5921 5918 5915 5912
5872 5876 5879 5883 5886 5890 5897 5902 5907 5910 5914 5917 5919 5922 5926 5929 5931 5934 5934 5932 5932 5933 5935 5936 5941 5946 5947 5945 5942 5939 5937 5938 5937 5938 5937 5938 5935 5932 5927 5922 5918 5914 5910 5907 5904
5870 5875 5878 5883 5886 5890 5894 5900 5905 5909 5912 5916 5919 5922 5926 5931 5931 5932 5936 5931 5932 5932 5932 5933 5936 5938 5938 5937 5936 5935 5933 5932 5931 5931 5930 5930 5928 5924 5916 5915 5911 5907 5903 5899 5895
5865 5871 5877 5881 5885 5889 5893 5898 5902 5906 5910 5915 5918 5921 5925 5931 5932 5935 5934 5934 5934 5928 5930 5931 5931 5929 5929 5929 5931 5930 5929 5926 5925 5924 5923 5923 5924 5910 5909 5907 5903 5900 5893 5890 5886
5865 5871 5875 5879 5883 5887 5891 5894 5897 5901 5906 5909 5913 5918 5922 5923 5925 5927 5930 5931 5932 5927 5927 5928 5928 5926 5925 5924 5922 5922 5923 5921 5920 5918 5917 5914 5908 5906 5903 5900 5898 5891 5884 5880 5877